Flag for U.S.A. Weather past 2 weeks in Vancouver, Washington, U.S.A.

Now
66 °F

Passing clouds.


Feels Like: 66 °F
Forecast: 64 / 73 °F
Wind: 10 mph from South

Location: Vancouver - Pearson Airpark

Current Time: Aug 29, 2015 at 8:29:39 AM

Latest Report: Aug 29, 2015 at 7:53 AM


Visibility: 10 mi

Pressure: 29.69 "Hg

Humidity: 75%

Dew point: 58 °F

Location of VancouverLocation

Historic Weather in Vancouver — Graph

°F

Vancouver temperature yesterday

Maximum temperature yesterday: 80 °F (at 3:53 PM)
Minimum temperature yesterday: 63 °F (at 6:53 AM)
Average temperature yesterday: 71 °F

Past Weeks' High & Low Weather Summary

 TemperatureHumidityPressure
High96 °F (Aug 19, 4:53 PM)87% (Aug 29, 5:53 AM)30.26 "Hg (Aug 29, 5:53 AM)
Low51 °F (Aug 25, 5:53 AM)13% (Aug 25, 4:53 PM)29.54 "Hg (Aug 29, 2:53 AM)
Average71 °F52%29.99 "Hg
* Reported Aug 14 6:53 AM — Aug 29 6:53 AM, Vancouver, Weather by CustomWeather, © 2015

Note: Actual official high and low records may vary slightly from our data, if they occured in-between our weather recording intervals... More about our weather records

Advertising

Vancouver weather history for previous 24 hours

 ConditionsComfort  
Time TempWeatherWind HumidityBarometerVisibility
6:53 AM
Sat, Aug 29
66 °FPartly cloudy.9 mph84%29.65 "Hg10 mi
5:53 AM65 °FLight rain. Mostly cloudy.9 mph87%29.61 "Hg10 mi
4:53 AM66 °FLight rain. Mostly cloudy.5 mph81%29.63 "Hg6 mi
4:03 AM68 °FThundershowers. Mostly cloudy.9 mph78%29.63 "Hg10 mi
3:53 AM67 °FMostly cloudy.No wind81%29.58 "Hg10 mi
2:53 AM67 °FPassing clouds.5 mph85%29.54 "Hg10 mi
1:53 AM68 °FLight rain. Mostly cloudy.6 mph78%29.57 "Hg10 mi
12:53 AM69 °FMostly cloudy.No wind76%29.60 "Hg10 mi
11:53 PM
Fri, Aug 28
70 °FClear.No wind68%29.61 "Hg10 mi
10:53 PM71 °FClear.No wind66%29.65 "Hg10 mi
9:53 PM71 °FLight rain. Passing clouds.5 mph71%29.68 "Hg10 mi
8:53 PM75 °FScattered clouds.6 mph54%29.71 "Hg10 mi
7:53 PM76 °FSunny.5 mph56%29.74 "Hg10 mi
6:53 PM77 °FSunny.6 mph52%29.77 "Hg10 mi
5:53 PM78 °FSunny.7 mph50%29.78 "Hg10 mi
4:53 PM79 °FSunny.7 mph48%29.80 "Hg10 mi
3:53 PM80 °FSunny.8 mph47%29.83 "Hg10 mi
2:53 PM78 °FSunny.5 mph50%29.86 "Hg10 mi
1:53 PM76 °FSunny.No wind54%29.89 "Hg10 mi
12:53 PM75 °FSunny.3 mph55%29.91 "Hg10 mi
11:53 AM75 °FPartly sunny.No wind54%29.93 "Hg10 mi
10:53 AM68 °FOvercast.3 mph65%29.96 "Hg10 mi
9:53 AM66 °FOvercast.3 mph68%29.96 "Hg10 mi
8:53 AM65 °FOvercast.No wind68%29.98 "Hg10 mi
Weather by CustomWeather, © 2015

See weather overviewHow to use our weather pages